Location: Unspecified
(0.0000°N, 0.0000°E)
Time: 22:21:22
(UTC+00:00)

ISS - Pass Details

Date: 14 January 2019
Orbit: 404 x 411 km, 51.6° (Epoch: 19 January)

Event Time Altitude Azimuth Distance (km) Brightness Sun altitude
Rises 18:40:48 0° 196° (SSW) 2,321 0.6 -7.4°
Reaches altitude 10° 18:43:08 10° 182° (S) 1,460 -0.7 -7.9°
Maximum altitude 18:45:50 24° 126° (SE) 895 -2.4 -8.6°
Enters shadow 18:48:07 12° 75° (ENE) 1,321 -1.9 -9.1°
